When you browse on this site, cookies collect data to enhance your experience and personalize the content and advertising you see.
Visit our Privacy Policy to learn more. By continuing to use the site, you agree to this use of cookies and data.
  • In Germany
  • List of Countries
  • For 7 days
  • Water Temperature
  • Satellite Maps
  • Weather Map
  • Weather Widgets
  • user-avatar
    Login

    Hourly Weather Kabwe

    Today, 22 January, Tuesday

    Time Temperature Precipitation Wind Pressure Humidity
    00:00 +19°C° 0 mm 1 mps 661 mmHg 94%
    01:00 +19°C° 0 mm 1 mps 661 mmHg 95%
    02:00 +19°C° 0 mm 1 mps 660 mmHg 96%
    03:00 +18°C° 0 mm 1 mps 660 mmHg 96%
    04:00 +18°C° 0 mm 1 mps 660 mmHg 95%
    05:00 +18°C° 0 mm 1 mps 660 mmHg 95%
    06:00 +17°C° 0 mm 0 mps 660 mmHg 92%
    07:00 +19°C° 0 mm 0 mps 661 mmHg 89%
    08:00 +21°C° 0 mm 0 mps 662 mmHg 85%
    09:00 +24°C° 0 mm 1 mps 662 mmHg 77%
    10:00 +25°C° 0 mm 1 mps 662 mmHg 69%
    11:00 +27°C° 0 mm 2 mps 662 mmHg 62%
    12:00 +27°C° 0 mm 2 mps 662 mmHg 59%
    13:00 +28°C° 0 mm 2 mps 661 mmHg 57%
    14:00 +29°C° 0 mm 2 mps 661 mmHg 54%
    15:00 +28°C° 0.1 mm 2 mps 661 mmHg 59%
    16:00 +28°C° 0.1 mm 1 mps 660 mmHg 63%
    17:00 +27°C° 0.1 mm 1 mps 660 mmHg 68%
    18:00 +25°C° 0 mm 1 mps 660 mmHg 74%
    19:00 +23°C° 0 mm 1 mps 660 mmHg 81%
    20:00 +20°C° 0 mm 2 mps 659 mmHg 87%
    21:00 +21°C° 0 mm 1 mps 660 mmHg 89%
    22:00 +20°C° 0 mm 1 mps 660 mmHg 91%
    23:00 +20°C° 0 mm 1 mps 660 mmHg 93%

    Tomorrow, 23 January, Wednesday

    Time Temperature Precipitation Wind Pressure Humidity
    00:00 +19°C° 0 mm 1 mps 660 mmHg 94%
    01:00 +19°C° 0 mm 1 mps 660 mmHg 95%
    02:00 +19°C° 0 mm 1 mps 659 mmHg 95%
    03:00 +18°C° 0 mm 1 mps 659 mmHg 96%
    04:00 +18°C° 0 mm 1 mps 659 mmHg 96%
    05:00 +18°C° 0 mm 1 mps 659 mmHg 97%
    06:00 +18°C° 0 mm 2 mps 659 mmHg 93%
    07:00 +19°C° 0 mm 2 mps 660 mmHg 89%
    08:00 +20°C° 0 mm 2 mps 661 mmHg 84%
    09:00 +24°C° 0 mm 2 mps 661 mmHg 77%
    10:00 +26°C° 0 mm 2 mps 661 mmHg 69%
    11:00 +28°C° 0 mm 2 mps 662 mmHg 62%
    12:00 +29°C° 0 mm 1 mps 661 mmHg 58%
    13:00 +30°C° 0 mm 1 mps 661 mmHg 55%
    14:00 +31°C° 0 mm 1 mps 660 mmHg 52%
    15:00 +30°C° 0 mm 1 mps 660 mmHg 56%
    16:00 +29°C° 0 mm 1 mps 659 mmHg 60%
    17:00 +29°C° 0 mm 1 mps 659 mmHg 64%
    18:00 +27°C° 0.1 mm 1 mps 659 mmHg 70%
    19:00 +25°C° 0.1 mm 1 mps 659 mmHg 76%
    20:00 +23°C° 0.1 mm 1 mps 659 mmHg 83%
    21:00 +22°C° 0.2 mm 1 mps 659 mmHg 86%
    22:00 +21°C° 0.2 mm 1 mps 660 mmHg 88%
    23:00 +21°C° 0.2 mm 1 mps 660 mmHg 91%

    Day after tomorrow, 24 January, Thursday

    Time Temperature Precipitation Wind Pressure Humidity
    00:00 +21°C° 0 mm 1 mps 660 mmHg 92%
    01:00 +20°C° 0 mm 1 mps 659 mmHg 92%
    02:00 +20°C° 0 mm 1 mps 659 mmHg 92%
    03:00 +20°C° 0 mm 1 mps 659 mmHg 93%
    04:00 +20°C° 0 mm 1 mps 659 mmHg 94%
    05:00 +20°C° 0 mm 1 mps 659 mmHg 95%
    06:00 +20°C° 0 mm 2 mps 660 mmHg 93%
    07:00 +20°C° 0 mm 2 mps 660 mmHg 92%
    08:00 +21°C° 0 mm 3 mps 661 mmHg 90%
    09:00 +22°C° 0 mm 3 mps 661 mmHg 86%
    10:00 +24°C° 0 mm 2 mps 662 mmHg 81%
    11:00 +26°C° 0 mm 2 mps 662 mmHg 76%
    12:00 +26°C° 0.9 mm 2 mps 661 mmHg 77%
    13:00 +26°C° 0.9 mm 2 mps 661 mmHg 78%
    14:00 +26°C° 0.9 mm 2 mps 660 mmHg 80%
    15:00 +26°C° 1.3 mm 1 mps 660 mmHg 82%
    16:00 +25°C° 1.3 mm 1 mps 660 mmHg 84%
    17:00 +23°C° 1.3 mm 0 mps 659 mmHg 86%
    18:00 +24°C° 0.6 mm 1 mps 660 mmHg 89%
    19:00 +23°C° 0.6 mm 1 mps 660 mmHg 92%
    20:00 +22°C° 0.6 mm 1 mps 660 mmHg 95%
    21:00 +21°C° 0.5 mm 1 mps 661 mmHg 95%
    22:00 +20°C° 0.5 mm 2 mps 661 mmHg 96%
    23:00 +20°C° 0.5 mm 2 mps 661 mmHg 96%

    25 January, Friday

    Time Temperature Precipitation Wind Pressure Humidity
    00:00 +20°C° 0.2 mm 2 mps 661 mmHg 95%
    01:00 +20°C° 0.2 mm 2 mps 660 mmHg 95%
    02:00 +19°C° 0.2 mm 2 mps 660 mmHg 94%
    03:00 +20°C° 0 mm 1 mps 660 mmHg 94%
    04:00 +20°C° 0 mm 1 mps 660 mmHg 93%
    05:00 +19°C° 0 mm 1 mps 660 mmHg 93%
    06:00 +20°C° 0 mm 1 mps 661 mmHg 90%
    07:00 +21°C° 0 mm 1 mps 662 mmHg 88%
    08:00 +22°C° 0 mm 1 mps 662 mmHg 85%
    09:00 +24°C° 0.4 mm 1 mps 663 mmHg 79%
    10:00 +26°C° 0.4 mm 1 mps 663 mmHg 73%
    11:00 +28°C° 0.4 mm 1 mps 663 mmHg 68%
    12:00 +28°C° 0.2 mm 1 mps 663 mmHg 64%
    13:00 +29°C° 0.2 mm 1 mps 662 mmHg 61%
    14:00 +30°C° 0.2 mm 1 mps 661 mmHg 58%
    15:00 +29°C° 1.7 mm 1 mps 661 mmHg 66%
    16:00 +28°C° 1.7 mm 1 mps 660 mmHg 73%
    17:00 +27°C° 1.7 mm 1 mps 660 mmHg 81%
    18:00 +25°C° 0.3 mm 1 mps 660 mmHg 84%
    19:00 +23°C° 0.3 mm 1 mps 661 mmHg 86%
    20:00 +21°C° 0.3 mm 1 mps 661 mmHg 89%
    21:00 +21°C° 0 mm 1 mps 661 mmHg 90%
    22:00 +21°C° 0 mm 1 mps 661 mmHg 91%
    23:00 +20°C° 0 mm 1 mps 662 mmHg 92%

    26 January, Saturday

    Time Temperature Precipitation Wind Pressure Humidity
    00:00 +20°C° 0 mm 1 mps 661 mmHg 93%
    01:00 +20°C° 0 mm 1 mps 661 mmHg 93%
    02:00 +20°C° 0 mm 1 mps 660 mmHg 94%
    03:00 +19°C° 0 mm 1 mps 660 mmHg 94%
    04:00 +19°C° 0 mm 1 mps 661 mmHg 95%
    05:00 +17°C° 0 mm 0 mps 661 mmHg 95%
    06:00 +18°C° 0 mm 0 mps 661 mmHg 92%
    07:00 +21°C° 0 mm 1 mps 662 mmHg 89%
    08:00 +23°C° 0 mm 1 mps 663 mmHg 87%
    09:00 +24°C° 0 mm 1 mps 663 mmHg 79%
    10:00 +26°C° 0 mm 1 mps 663 mmHg 72%
    11:00 +28°C° 0 mm 2 mps 663 mmHg 65%
    12:00 +28°C° 0.1 mm 2 mps 663 mmHg 62%
    13:00 +29°C° 0.1 mm 2 mps 662 mmHg 59%
    14:00 +30°C° 0.1 mm 2 mps 661 mmHg 56%
    15:00 +29°C° 0.5 mm 2 mps 661 mmHg 65%
    16:00 +28°C° 0.5 mm 2 mps 661 mmHg 73%
    17:00 +27°C° 0.5 mm 2 mps 660 mmHg 81%
    18:00 +25°C° 0.1 mm 2 mps 660 mmHg 84%
    19:00 +23°C° 0.1 mm 2 mps 661 mmHg 88%
    20:00 +22°C° 0.1 mm 1 mps 661 mmHg 92%
    21:00 +21°C° 0 mm 1 mps 661 mmHg 93%
    22:00 +21°C° 0 mm 1 mps 661 mmHg 94%
    23:00 +21°C° 0 mm 1 mps 662 mmHg 95%

    27 January, Sunday

    Time Temperature Precipitation Wind Pressure Humidity
    00:00 +20°C° 0 mm 1 mps 661 mmHg 96%
    01:00 +20°C° 0 mm 1 mps 661 mmHg 97%
    02:00 +20°C° 0 mm 1 mps 660 mmHg 97%
    03:00 +19°C° 0 mm 1 mps 660 mmHg 97%
    04:00 +19°C° 0 mm 1 mps 660 mmHg 97%
    05:00 +19°C° 0 mm 1 mps 660 mmHg 97%
    06:00 +19°C° 0 mm 2 mps 661 mmHg 94%
    07:00 +20°C° 0 mm 2 mps 662 mmHg 90%
    08:00 +21°C° 0 mm 3 mps 662 mmHg 87%
    09:00 +24°C° 0 mm 3 mps 662 mmHg 80%
    10:00 +26°C° 0 mm 3 mps 663 mmHg 73%
    11:00 +27°C° 0 mm 4 mps 663 mmHg 66%
    12:00 +28°C° 0.2 mm 4 mps 663 mmHg 63%
    13:00 +29°C° 0.2 mm 4 mps 662 mmHg 60%
    14:00 +30°C° 0.2 mm 4 mps 662 mmHg 57%
    15:00 +29°C° 0.4 mm 3 mps 661 mmHg 63%
    16:00 +28°C° 0.4 mm 3 mps 661 mmHg 69%
    17:00 +27°C° 0.4 mm 3 mps 660 mmHg 75%
    18:00 +25°C° 0.5 mm 2 mps 661 mmHg 81%
    19:00 +24°C° 0.5 mm 2 mps 661 mmHg 86%
    20:00 +21°C° 0.5 mm 2 mps 661 mmHg 91%
    21:00 +21°C° 0.6 mm 2 mps 661 mmHg 92%
    22:00 +20°C° 0.6 mm 2 mps 662 mmHg 93%
    23:00 +20°C° 0.6 mm 2 mps 662 mmHg 94%
    Show more